Home

[1].2.
MP3/FLAC - Release Name, 341 releases = 82,34 GB
PREV   << 2024-04-02 >>  NEXT
 Killswitch_Engage-The_Signal_Fire-DDC-2160p-x265-2019-SRP 1,00 GB SRP 2024-04-02
 Killswitch_Engage-Starting_Over-DDC-720p-x264-2010-SRP 147,03 MB SRP 2024-04-02
 Killswitch_Engage-Hate_By_Design-DDC-1080p-x264-2016-SRP 237,92 MB SRP 2024-04-02
 Killswitch_Engage-Always-DDC-1080p-x264-2013-SRP 215,96 MB SRP 2024-04-02
 Jamie_Wyatt-Back_To_The_Country_(The_Kelly_Clarkson_Show_2024-02-21)-DDC-1080p-h264-2024-SRPx 219,39 MB SRPx 2024-04-02
 Dan_And_Shay-Bigger_Houses_(The_Kelly_Clarkson_Show_2024-02-27)-DDC-1080p-h264-2024-SRPx 191,91 MB SRPx 2024-04-02
 Chloe_Stroll-Pedestal_(The_Kelly_Clarkson_Show_2024-02-13)-DDC-1080p-h264-2024-SRPx 142,87 MB SRPx 2024-04-02
 Madonna-Live_and_Sexy-16BIT-WEB-FLAC-2024-OBZEN 537,93 MB OBZEN 2024-04-02
 John_Williamson-In_Symphony_With_The_Sydney_Symphony-CD-FLAC-2011-FLACME 442,28 MB FLACME 2024-04-02
 Mobb_Deep-The_Infamous-25th_Anniversary_Edition-24BIT-WEB-FLAC-2020-BiKO 1.019,25 MB BiKO 2024-04-02
 Throwdown-Americana-DDC-1080p-x264-2008-SRP 463,55 MB SRP 2024-04-02
 Torn_Confidence-Take_Heart-DDC-1080p-x264-2018-SRP 187,16 MB SRP 2024-04-02
 Threat_Signal-A_New_Beginning-DDC-1080p-x264-2008-SRP_iNT 133,20 MB SRP_iNT 2024-04-02
 Time_The_Valuator-When_I_Meet_Death-DDC-2160p-x265-2017-SRP 782,56 MB SRP 2024-04-02
 Foster_And_Allen-Magic_Momentscd1-2CD-FLAC-2010-FLACME 851,47 MB FLACME 2024-04-02
 Louis_Carnell_and_Laraaji-Eleven-(I11STUMM507)-SINGLE-WEB-2024-PTC 17,50 MB PTC 2024-04-02
 Coffee_Shop_Jungle-Nostos-(CSJ076)-SINGLE-WEB-2024-PTC 4,98 MB PTC 2024-04-02
 Klass_Sirius-Five_Curbs-(HDN035)-WEB-2024-PTC 68,06 MB PTC 2024-04-02
 Tim_Jackman-Colliding_Galaxies-(KR349)-WEB-2024-PTC 29,28 MB PTC 2024-04-02
 Spire_(FR)-Operate-(BCR155)-WEB-2024-PTC 25,86 MB PTC 2024-04-02
 Damne_and_Konstantin_Darko-Cold_Future-(WL10)-WEB-2024-PTC 92,11 MB PTC 2024-04-02
 AllFive-Eyeliner_EP-(WRD0103)-WEB-2024-PTC 27,15 MB PTC 2024-04-02
 Cedicci-Project_Eden-(MNT103)-WEB-2024-PTC 30,63 MB PTC 2024-04-02
 Buried_In_Verona-Hangin_Hoes_By_Their_Toes_(The_Manning_Bar_2010-10-22)-DDC-1080p-x264-2010-SRP 295,50 MB SRP 2024-04-02
 Buried_In_Verona-The_End-DDC-1080p-x264-2011-SRP 730,87 MB SRP 2024-04-02
 DNR_Icez-HGM-WEB-2024-RAGEMP3 39,52 MB RAGEMP3 2024-04-02
 DNR_Icez-Drop_N_Reload-WEB-2023-RAGEMP3 44,15 MB RAGEMP3 2024-04-02
 DNR_Icez-Icez_Cold_Pimpin-WEB-2023-RAGEMP3 52,22 MB RAGEMP3 2024-04-02
 2_Of_A_Kind_-_Rushin-(A9RDL174)-SINGLE-WEB-2024-ZzZz 10,21 MB ZzZz 2024-04-02
 VA-Full_On_Psytrance_Oasis_V1-REPACK-16BIT-WEB-FLAC-2010-PWT 554,86 MB PWT 2024-04-02
 David_Moleon-I_See_You-16BIT-WEB-FLAC-2024-PWT 176,19 MB PWT 2024-04-02
 Messaline_(FR)_And_Maata-Bromance_EP-16BIT-WEB-FLAC-2024-PWT 187,36 MB PWT 2024-04-02
 Dance_Pop_Music_-_New_Hits_2024-(YM195)-WEB-2024-ZzZz_iNT 157,13 MB ZzZz_iNT 2024-04-02
 Latex_Zebra_And_Mista_Twist-Perihelion-16BIT-WEB-FLAC-2024-PWT 190,34 MB PWT 2024-04-02
 Bunny_X_-_Love_Minus_80_(Instrumentals)-(AZT0401)-WEB-2024-ZzZz 75,29 MB ZzZz 2024-04-02
 Crucifery_-_Dance_Shot-(GLION132)-SINGLE-WEB-2024-ZzZz 7,85 MB ZzZz 2024-04-02
 CRAY_C_-_The_Drop-(GRVV2231)-SINGLE-WEB-2024-ZzZz 8,42 MB ZzZz 2024-04-02
 CIBIXX_-_WORLD-(RU355247)-SINGLE-WEB-2024-ZzZz 9,48 MB ZzZz 2024-04-02
 Chloe_Rin_-_Torn_Letters-(5063483236972)-SINGLE-WEB-2024-ZzZz 8,21 MB ZzZz 2024-04-02
 Buweloboy_-_Away-(5063483233100)-SINGLE-WEB-2024-ZzZz 13,07 MB ZzZz 2024-04-02
 Bogendorfer_-_Cha_Cha_Dub-(BABAREC266)-WEB-2024-ZzZz 23,63 MB ZzZz 2024-04-02
 BlackPhil_-_Domesticated_Society-(4067248151693)-SINGLE-WEB-2024-ZzZz 12,39 MB ZzZz 2024-04-02
 Benny_x_Jimmy_-_Let_Me_Love_You-(5063483191417)-SINGLE-WEB-2024-ZzZz 11,55 MB ZzZz 2024-04-02
 Belhad_-_Lost_Notes-(NSD412)-WEB-2024-ZzZz 15,57 MB ZzZz 2024-04-02
 Anton_Dolgushin_-_Love_and_Feelings-(5063483232929)-WEB-2024-ZzZz 18,87 MB ZzZz 2024-04-02
 Alpha_Anthem_-_Break_Lola-(RLY018)-SINGLE-WEB-2024-ZzZz 12,76 MB ZzZz 2024-04-02
 AlNasick_-_Synthesis-(5063483240887)-SINGLE-WEB-2023-ZzZz 9,54 MB ZzZz 2024-04-02
 Acidbot_-_Another-(5063483237429)-SINGLE-WEB-2024-ZzZz 10,32 MB ZzZz 2024-04-02
 Chack_Dogs_-_Maggie_May-(EINSD0183)-WEB-2024-ZzZz 132,57 MB ZzZz 2024-04-02
 Sum_41-Heaven_x_Hell-2CD-FLAC-2024-FL4K 396,22 MB FL4K 2024-04-02
 Mario_Rossi_Band-Smoke_Burst-WEB-2024-ENRiCH 88,68 MB ENRiCH 2024-04-02
 VA-Bar25_-_Zeitgeist_Vol._1-16BIT-WEB-FLAC-2017-RAWBEATS 1,75 GB RAWBEATS 2024-04-02
 Home_Reared_Meat-Truckstop_Terror-WEB-2024-ENTiTLED 106,93 MB ENTiTLED 2024-04-02
 Child-Shitegeist-16BIT-WEB-FLAC-2024-ENTiTLED 179,24 MB ENTiTLED 2024-04-02
 Principles_Of_Joy-Its_Soul_That_Counts-WEB-2024-ENRiCH 104,03 MB ENRiCH 2024-04-02
 Paul_Mahoux-Lysergie_Villageoise-EP-WEB-2024-ENRiCH 78,00 MB ENRiCH 2024-04-02
 Ridic-No_Apologies-CD-FLAC-2004-RAGEFLAC 350,02 MB RAGEFLAC 2024-04-02
 SportCoat_O.A.K-Chess_Not_Checkers-WEB-2023-RAGEMP3 60,71 MB RAGEMP3 2024-04-02
 SportCoat_O.A.K-Nobody_Came_To_See_You_Otis-WEB-2022-RAGEMP3 37,49 MB RAGEMP3 2024-04-02
 SportCoat_O.A.K-Money_Oil_And_Bombs-WEB-2020-RAGEMP3 132,00 MB RAGEMP3 2024-04-02
 Paper_Scraperz-Early_2000s_Music-WEB-2020-RAGEMP3 127,15 MB RAGEMP3 2024-04-02
 California_Brougham-MoneyRich_Missions-WEB-2020-RAGEMP3 116,42 MB RAGEMP3 2024-04-02
 Black_Collar_Hustlaz-Highness_-n-_Brougham-WEB-2024-RAGEMP3 118,75 MB RAGEMP3 2024-04-02
 Black_Collar_Hustlaz-The_Movement-WEB-2019-RAGEMP3 123,40 MB RAGEMP3 2024-04-02
 Black_Collar_Hustlaz-Burnout_Disc-WEB-2013-RAGEMP3 103,78 MB RAGEMP3 2024-04-02
 Black_Collar_Hustlaz-Black_Collar_Dreamz-WEB-2019-RAGEMP3 120,70 MB RAGEMP3 2024-04-02
 Black_Collar_Hustlaz-Music_From_The_Motion_Picture_Easy_Money-OST-WEB-2019-RAGEMP3 102,01 MB RAGEMP3 2024-04-02
 VA-Money_Rich_Entertainment_-_Street_Album-WEB-2013-RAGEMP3 169,57 MB RAGEMP3 2024-04-02
 GX-GX-CDEP-CN-2024-TosK 35,42 MB TosK 2024-04-02
 VA-Memories_Of_Ireland-3CD-FLAC-2010-FLACME 927,69 MB FLACME 2024-04-02
 Aria_-_Flame_Within_(Edit)-SINGLE-WEB-2024-UTNG 9,94 MB UTNG 2024-04-02
 Meister_Leonhardt-Thanatopoeia-CD-FLAC-2024-TOTENKVLT 293,98 MB TOTENKVLT 2024-04-02
 Meister_Leonhardt-Thanatopoeia-CD-2024-TOTENKVLT 78,63 MB TOTENKVLT 2024-04-02
 Acudo_-_Qui_Con_Me-SINGLE-WEB-IT-2024-UOVA 9,69 MB UOVA 2024-04-02
 Oliver_Poll-Magadicka-(CDALAB1643)-WEB-2024-PTC 27,93 MB PTC 2024-04-02
 Matzak-Nebulas_Frequency-(CDALAB1588)-WEB-2024-PTC 101,49 MB PTC 2024-04-02
 Snap_-_Rhythm_Is_A_Dancer_2004-WEB-2004-iDC_INT 74,67 MB iDC_INT 2024-04-02
 Voices_of_valley_and_Arethousa-Epirus-(SYYK232)-SINGLE-16BIT-WEB-FLAC-2024-PTC 28,27 MB PTC 2024-04-02
 Mentrat_Noihr-Masquerade-(SFREC010)-WEB-2024-PTC 66,33 MB PTC 2024-04-02
 Edna_Million-The_Pool-WEB-2024-k4 96,95 MB k4 2024-04-02
 Arkain-Raqs-(DRSS791)-WEB-2024-PTC 93,17 MB PTC 2024-04-02
 Tommy_Vibes-Alekwu-(TR423)-SINGLE-WEB-2024-PTC 16,54 MB PTC 2024-04-02
 Christy_C-Silence-(LPRBAS166)-SINGLE-WEB-2024-PTC 12,27 MB PTC 2024-04-02
 Autokinetic_and_Flaws-Selective_Consciousness-(PLTM017)-WEB-2024-PTC 79,54 MB PTC 2024-04-02
 Apollo_Junior-Smoke-(CALISTO57)-SINGLE-WEB-2024-PTC 15,54 MB PTC 2024-04-02
 Seyde_and_Zhart-Dampflok-(051)-WEB-2024-PTC 84,87 MB PTC 2024-04-02
 Freemood-Inside_Existence-(ASR668)-WEB-2024-AFO 20,31 MB AFO 2024-04-02
 Romedy-Near-(MSD296)-SINGLE-WEB-2024-AFO 15,96 MB AFO 2024-04-02
 Char_Spinelli-Seven__Eleven-(397SD)-16BIT-WEB-FLAC-2024-AFO 99,84 MB AFO 2024-04-02
 Freemood-Inside_Existence-(ASR668)-16BIT-WEB-FLAC-2024-AFO 62,06 MB AFO 2024-04-02
 Bar_Shaked-Fade_Away-(MSD294)-16BIT-WEB-FLAC-2024-AFO 77,20 MB AFO 2024-04-02
 Tommy_Baynen-Inflorescence__Reconstructions-(ENCOLOR494E)-WEB-2024-AFO 46,16 MB AFO 2024-04-02
 Romedy-Near-(MSD296)-SINGLE-16BIT-WEB-FLAC-2024-AFO 38,66 MB AFO 2024-04-02
 AKSOM-Nebula-(MYCM017)-WEB-2024-PTC 44,43 MB PTC 2024-04-02
 Bar_Shaked-Fade_Away-(MSD294)-WEB-2024-AFO 27,06 MB AFO 2024-04-02
 Tommy_Baynen-Inflorescence__Reconstructions-(ENCOLOR494E)-16BIT-WEB-FLAC-2024-AFO 123,07 MB AFO 2024-04-02
 Chris_Drifter-You_Wanna_Tell_Me_(RZNEBEL_Remix)-(CFLOW118)-SINGLE-16BIT-WEB-FLAC-2024-AFO 35,98 MB AFO 2024-04-02
 Char_Spinelli-Seven__Eleven-(397SD)-WEB-2024-AFO 33,41 MB AFO 2024-04-02
 Chris_Drifter-You_Wanna_Tell_Me_(RZNEBEL_Remix)-(CFLOW118)-SINGLE-WEB-2024-AFO 12,40 MB AFO 2024-04-02
 Piero_Dp-Time_Machine-(RBL542)-16BIT-WEB-FLAC-2024-AFO 58,11 MB AFO 2024-04-02
 AdiHansen-Like_Water__Asian_Trip-(SVR097)-16BIT-WEB-FLAC-2024-AFO 72,56 MB AFO 2024-04-02
 Freelanz-Nexus-(PLTL296)-16BIT-WEB-FLAC-2024-AFO 72,25 MB AFO 2024-04-02
 AdiHansen-Like_Water__Asian_Trip-(SVR097)-WEB-2024-AFO 26,85 MB AFO 2024-04-02
 JCP-Elementary-(FA446)-16BIT-WEB-FLAC-2024-AFO 102,63 MB AFO 2024-04-02
 JCP-Elementary-(FA446)-WEB-2024-AFO 34,57 MB AFO 2024-04-02
 Piero_Dp-Time_Machine-(RBL542)-WEB-2024-PTC 22,92 MB PTC 2024-04-02
 Voices_of_valley_ft_Arethousa-Epirus-(SYYK232)-SINGLE-WEB-2024-AFO 12,13 MB AFO 2024-04-02
 Diego_Galloso_and_Noam_Garcia-Native-(TR420)-WEB-2024-PTC 45,41 MB PTC 2024-04-02
 Sangeet-Zusammen-(KOSA148)-WEB-2024-PTC 29,74 MB PTC 2024-04-02
 Summer_Department-Medina-(CDALAB1600)-WEB-2024-PTC 47,71 MB PTC 2024-04-02
 Shulakh-Spiritual_Journey-(CDALAB1591)-WEB-2024-PTC 36,19 MB PTC 2024-04-02
 VA-Bar25_-_Zeitgeist_Vol._10-16BIT-WEB-FLAC-2023-RAWBEATS 412,26 MB RAWBEATS 2024-04-02
 DIB-Landing_Page_001-(INSECTORAMA172)-WEB-2024-AGITB_INT 80,52 MB AGITB_INT 2024-04-02
 aname_and_Lydmor-Peaceful_Avenues-WEB-2024-AFO 44,44 MB AFO 2024-04-02
 Job_for_a_Cowboy-Moon_Healer-(VLH068)-CD-FLAC-2024-MOONBLOOD 285,69 MB MOONBLOOD 2024-04-02
 Karina_Rosee_-_OH_MY_GOD_(Edit)-SINGLE-WEB-2024-UTNG 6,15 MB UTNG 2024-04-02
 Job_for_a_Cowboy-Moon_Healer-2024-BERC 81,75 MB BERC 2024-04-02
 LunaKorpz_-_Summer_SZN-(QORE049PRO)-WEB-2024-SRG 14,05 MB SRG 2024-04-02
 Sizzla-Den_Why-VLS-200X-YARD_INT 14,25 MB YARD_INT 2024-04-02
 Natty_King-Nine_Months-VLS-200X-YARD_INT 16,52 MB YARD_INT 2024-04-02
 Norris_Man-Put_Down_That_Thing-VLS-2006-YARD 17,54 MB YARD 2024-04-02
 Rosie_T-Baby_I_Am_Sorry-(How_005)-VLS-1995-YARD 17,23 MB YARD 2024-04-02
 Simpleton-Keep_It_Up-(CF._6)-12INCH_VINYL-199X-YARD 16,96 MB YARD 2024-04-02
 Phoebe_One_Aysha_and_Cinderella-Keep_Up_The_Vibes_(Girl_Vibes)-(BLACK8)-12INCH_VINYL-1997-YARD 17,77 MB YARD 2024-04-02
 Robert_French-Pumpie_Sweetie-(VPRD-144)-12INCH_VINYL-198X-YARD 27,73 MB YARD 2024-04-02
 Norbert_Clarke-Say_Goodbye_To_Love-(BST_12)-12INCH_VINYL-1991-YARD 16,90 MB YARD 2024-04-02
 Super_Sass-Hurricane_Ivan-(FD1)-12INCH_VINYL-200X-YARD_INT 28,86 MB YARD_INT 2024-04-02
 Owen_Gray-First_Taste_Of_Love-(WRT._60)-12INCH_VINYL-198X-YARD 24,74 MB YARD 2024-04-02
 Mikey_Spice_and_Luciano-Lets_Work_It_Out-(BST_24)-12INCH_VINYL-1994-YARD 16,85 MB YARD 2024-04-02
 Sugar_Minnot_and_Ranking_Dread-African_Girl-(LLDIS113)-12INCH_VINYL-198X-YARD 22,16 MB YARD 2024-04-02
 Culture-Forward_To_Africa-(KV_8015-12)-12INCH_VINYL-1981-YARD 27,15 MB YARD 2024-04-02
 Mind_Linkk-Rebel_Music-(BM003)-12INCH_VINYL-1994-YARD 19,34 MB YARD 2024-04-02
 Vybez_Kartel-Up_To_The_Time_(Remix)-(ELE_701)-VLS-200X-YARD 15,66 MB YARD 2024-04-02
 Gappy_Ranks-Put_The_Stereo_On-(GREL2079)-LP-2010-YARD 79,22 MB YARD 2024-04-02
 Freddy_McGregor-Every_Little_Thing-(MXL._37)-12INCH_VINYL-199X-YARD 22,98 MB YARD 2024-04-02
 Sanchez-Impossible-(WRD_017)-12INCH_VINYL-199X-YARD 17,72 MB YARD 2024-04-02
 Perversity_Denied-Trepanned_by_Glutinous_Claws-CD-2024-DiTCH 63,76 MB DiTCH 2024-04-02
 Voice_Mail-Go_Weh-(SLSVNL_02)-VLS-200X-YARD 15,89 MB YARD 2024-04-02
 Jimmy_Riley-My_Womans_Love-(IPR_2043)-12INCH_VINYL-1980-YARD 32,91 MB YARD 2024-04-02
 Turbulence-Bus_Di_Steel-VLS-200X-YARD_INT 14,04 MB YARD_INT 2024-04-02
 Gregory_Isaacs_And_Dennis_Brown-Let_Off_Supm-(GRED_181)-12INCH_VINYL-1985-YARD 29,14 MB YARD 2024-04-02
 Turbulance-Im_Stronger_Than_Before-VLS-200X-YARD_INT 15,48 MB YARD_INT 2024-04-02
 Turbulance-As_Sure_As_The_Sun_Shine-VLS-200X-YARD 16,82 MB YARD 2024-04-02
 Frankie_Paul-Them_A_Talk_Bout-12INCH_VINYL-198X-YARD 19,21 MB YARD 2024-04-02
 Still_Cool-Insane_Love-(BST_11)-12INCH_VINYL-1991-YARD 16,35 MB YARD 2024-04-02
 Pressure-Make_Up_To_Break_Up-VLS-200X-YARD 14,71 MB YARD 2024-04-02
 Wayne_Marshall-Ooh_Aah_(G-Spot)-(SOUL-12_0032)-12INCH_VINYL-1994-YARD 25,18 MB YARD 2024-04-02
 Tony_Curtis-Walked_Outta_Heaven-(FM023)-VLS-200X-YARD 20,35 MB YARD 2024-04-02
 Vorga-Striving_Toward_Oblivion-CD-FLAC-2022-TOTENKVLT 331,19 MB TOTENKVLT 2024-04-02
 Triston_Palma__Double_Ugly-Dollars_Fe_A_Piece-(BG-0027)-12INCH_VINYL-198X-YARD 29,35 MB YARD 2024-04-02
 Singing_Melody-When_My_Girl_Keep_Smiling-(HPD_031)-12INCH_VINYL-199X-YARD 24,79 MB YARD 2024-04-02
 Pat_Kelly-Cry_For_You_No_More-(BMS_1.003)-12INCH_VINYL-1988-YARD 28,02 MB YARD 2024-04-02
 Carlton_Livingstone-Aint_Gonna_Fight-(JBD_044)-12INCH_VINYL-198X-YARD 20,35 MB YARD 2024-04-02
 Vorga-Striving_Toward_Oblivion-CD-2022-TOTENKVLT 88,25 MB TOTENKVLT 2024-04-02
 Vorga-Radiant_Gloom-CDEP-FLAC-2019-TOTENKVLT 163,62 MB TOTENKVLT 2024-04-02
 Vorga-Beyond_The_Palest_Star-CD-FLAC-2024-TOTENKVLT 325,70 MB TOTENKVLT 2024-04-02
 Vorga-Radiant_Gloom-CDEP-2019-TOTENKVLT 45,19 MB TOTENKVLT 2024-04-02
 Killing_Addiction-Mind_of_a_New_God-CD-2021-DiTCH 72,06 MB DiTCH 2024-04-02
 Vorga-Beyond_The_Palest_Star-CD-2024-TOTENKVLT 84,71 MB TOTENKVLT 2024-04-02
 Into_the_Ashes-Consumed_by_the_Negative_Dimension-CD-2024-DiTCH 62,62 MB DiTCH 2024-04-02
 Innocent_Decomposure-Incognitive_Crave_to_Fornicate_Euphoria-CD-2024-DiTCH 53,17 MB DiTCH 2024-04-02
 aname_and_Lydmor-Peaceful_Avenues-24BIT-WEB-FLAC-2024-AFO 204,63 MB AFO 2024-04-02
 Kiasmos-Flown-(ERATP168DS01)-24BIT-WEB-FLAC-2024-BABAS 264,81 MB BABAS 2024-04-02
 Enrico_Coniglio-The_Sirens_Of_Titan-(DR94)-24BIT-WEB-FLAC-2024-BABAS 425,44 MB BABAS 2024-04-02
 Art_Of_Tones_x_Chatobaron-Flight_Of_The_Comet_Remixes-(FRPP024D)-24BIT-WEB-FLAC-2024-BABAS 307,05 MB BABAS 2024-04-02
 Bugseed-Soundcraft_2-24BIT-WEB-FLAC-2024-BABAS 400,01 MB BABAS 2024-04-02
 DJ_Cam-Broken_Melancholy-24BIT-WEB-FLAC-2024-BABAS 277,26 MB BABAS 2024-04-02
 Kaidi_Tatham-Fusion_Moves-(RPMCD009)-24BIT-WEB-FLAC-2024-BABAS 533,93 MB BABAS 2024-04-02
 Jeff_Mills-Neo_Tantric_Parts-(AX118)-24BIT-WEB-FLAC-2024-BABAS 459,00 MB BABAS 2024-04-02
 Autokinetic_And_Flaws-Selective_Consciousness-PLTM017-24BIT-WEB-FLAC-2024-WAVED 394,88 MB WAVED 2024-04-02
 VA-Soul_Jazz_Records_presents_STUDIO_ONE_DOWN_BEAT_SPECIAL_(Expanded_Edition)-(SJRD548)-24BIT-WEB-FL... 407,86 MB BABAS 2024-04-02
 Espen_Berg-Water_Fabric-(ODINCD9588)-24BIT-WEB-FLAC-2023-BABAS 1,17 GB BABAS 2024-04-02
 SB-SIX-Edge_Of_The_Globe-(INSECTORAMA171)-WEB-2024-AGITB_INT 106,26 MB AGITB_INT 2024-04-02
 Espen_Rud-Hotelsuite-(ODINLP13)-24BIT-WEB-FLAC-1985-BABAS 910,95 MB BABAS 2024-04-02
 Espen_Berg_Trio-Bolge-(ODINCD9559)-24BIT-WEB-FLAC-2018-BABAS 1,03 GB BABAS 2024-04-02
 Trondheim_Jazz_Orchestra_x_Ole_Morten_Vagan-Plastic_Wave-(ODINLP9568)-24BIT-WEB-FLAC-2021-BABAS 966,43 MB BABAS 2024-04-02
 Gard_Nilssens_Supersonic_Orchestra-If_You_Listen_Carefully_The_Music_Is_Yours-(ODINLP9572)-24BIT-WEB... 793,31 MB BABAS 2024-04-02
 OJKOS-Alea_Iacta_Est-(ODINLP9573)-24BIT-WEB-FLAC-2020-BABAS 419,21 MB BABAS 2024-04-02
 OJKOS-Alea_Iacta_Est-(ODINLP9573)-WEB-2020-BABAS 91,33 MB BABAS 2024-04-02
 The_Source-But_Swinging_Doesnt_Bend_Them_Down-(ODINLP9577)-24BIT-WEB-FLAC-2021-BABAS 1,29 GB BABAS 2024-04-02
 OJKOS-Mensa_Rotunda-(ODINLP9580)-24BIT-WEB-FLAC-2022-BABAS 490,05 MB BABAS 2024-04-02
 Espen_Rud-Hotelsuite-(ODINLP13)-WEB-1985-BABAS 98,60 MB BABAS 2024-04-02
 Atomic-Pet_Variations-(ODINLP9568)-WEB-2018-BABAS 124,69 MB BABAS 2024-04-02
 Gard_Nilssen_Acoustic_Unity-To_Whom_Who_Buys_A_Record-(ODINLP9570)-WEB-2019-BABAS 98,86 MB BABAS 2024-04-02
 Gard_Nilssens_Supersonic_Orchestra-If_You_Listen_Carefully_The_Music_Is_Yours-(ODINLP9572)-WEB-2020-... 150,10 MB BABAS 2024-04-02
 The_Source-But_Swinging_Doesnt_Bend_Them_Down-(ODINLP9577)-WEB-2021-BABAS 157,39 MB BABAS 2024-04-02
 Espen_Berg-Water_Fabric-(ODINCD9588)-WEB-2023-BABAS 138,61 MB BABAS 2024-04-02
 OJKOS-Mensa_Rotunda-(ODINLP9580)-WEB-2022-BABAS 96,65 MB BABAS 2024-04-02
 VA-Bar25_-_Zeitgeist_Vol._7-16BIT-WEB-FLAC-2020-RAWBEATS 633,84 MB RAWBEATS 2024-04-02
 VA-Scissor_And_Thread_Presents_Tailored_Cuts_Vol_3-(SAT041)-24BIT-WEB-FLAC-2018-BABAS 701,84 MB BABAS 2024-04-02
 Francis_Harris-Trivial_Occupations-(SAT038LP)-24BIT-WEB-FLAC-2018-BABAS 597,79 MB BABAS 2024-04-02
 Francis_Harris-Minor_Forms-(SAT034)-24BIT-WEB-FLAC-2018-BABAS 307,73 MB BABAS 2024-04-02
 Frank_x_Aakmael-Mercy_Of_Means-(SAT037)-24BIT-WEB-FLAC-2018-BABAS 344,10 MB BABAS 2024-04-02
 Alex_Albrecht_pres._Melquiades-Blue_Caves-(SAT035D)-24BIT-WEB-FLAC-2018-BABAS 279,07 MB BABAS 2024-04-02
 Nadia_Khan-In_Gleam-(SAT036D)-24BIT-WEB-FLAC-2018-BABAS 333,43 MB BABAS 2024-04-02
 Black_Light_Smoke-Nothing_Makes_Me_Feel_(Good_Anymore)-(SAT044)-24BIT-WEB-FLAC-2019-BABAS 298,32 MB BABAS 2024-04-02
 VA-Scissor_And_Thread_Presents_Tailored_Cuts_Vol_4-(SAT045)-16BIT-WEB-FLAC-2019-BABAS 561,23 MB BABAS 2024-04-02
 Francis_Harris-Trivial_Occupations_Remixes-(SAT042)-24BIT-WEB-FLAC-2019-BABAS 266,84 MB BABAS 2024-04-02
 Alex_Albrecht_pres._Melquiades-Excerpts-(SAT043)-24BIT-WEB-FLAC-2019-BABAS 306,82 MB BABAS 2024-04-02
 Black_Light_Smoke-City_Life-(SAT040D)-24BIT-WEB-FLAC-2019-BABAS 327,78 MB BABAS 2024-04-02
 Hidden_Spheres-1985-(SAT046)-24BIT-WEB-FLAC-2020-BABAS 330,38 MB BABAS 2024-04-02
 Nadia_Khan-Port_Ana-(SAT048)-24BIT-WEB-FLAC-2020-BABAS 314,81 MB BABAS 2024-04-02
 ZG-ZG-(SAT054LP)-24BIT-WEB-FLAC-2022-BABAS 406,57 MB BABAS 2024-04-02
 Black_Light_Smoke-Ghosts-(SAT058LPD)-24BIT-WEB-FLAC-2023-BABAS 833,79 MB BABAS 2024-04-02
 Frank_And_Tony-Ethos-(SAT064LP)-24BIT-WEB-FLAC-2024-BABAS 638,19 MB BABAS 2024-04-02
 VA-Scissor_And_Thread_Presents_Tailored_Cuts_Vol_05-(SAT061)-16BIT-WEB-FLAC-2023-BABAS 660,33 MB BABAS 2024-04-02
 Frank_And_Tony-Dream_Vibration-(SAT050D)-24BIT-WEB-FLAC-2022-BABAS 286,26 MB BABAS 2024-04-02
 VA-Bar25_-_Zeitgeist_Vol._6-16BIT-WEB-FLAC-2020-RAWBEATS 692,66 MB RAWBEATS 2024-04-02
 VA-Bar25_-_Zeitgeist_Vol._8-16BIT-WEB-FLAC-2021-RAWBEATS 427,32 MB RAWBEATS 2024-04-02
 VA-Bar25_-_Zeitgeist_Vol._4-16BIT-WEB-FLAC-2019-RAWBEATS 723,27 MB RAWBEATS 2024-04-02
 VA-Bar25_-_Zeitgeist_Vol._2-16BIT-WEB-FLAC-2018-RAWBEATS 1.022,19 MB RAWBEATS 2024-04-02
 Creation_Rebel-Hostile_Environment-(ONUCD160)-24BIT-WEB-FLAC-2023-BABAS 452,56 MB BABAS 2024-04-02
 VA-Bar25_-_Zeitgeist_Vol._5-16BIT-WEB-FLAC-2019-RAWBEATS 701,32 MB RAWBEATS 2024-04-02
 Escarnium__Rotborn-Ao_Vivo_na_Eslovenia-(C327)-CD-FLAC-2024-MOONBLOOD 233,40 MB MOONBLOOD 2024-04-02
 Escarnium-Rotborn--Ao_Vivo_na_Eslovenia-Split-2024-BERC 71,92 MB BERC 2024-04-02
 VA-Uplifting_Only_Top_15_March_2024_(Extended_Mixes)-(UOMC2403)-WEB-2024-COS 248,84 MB COS 2024-04-02
 VA-Uplifting_Tunes_007-(HOTQUT007)-WEB-2024-COS 337,21 MB COS 2024-04-02
 VA-Simply_Deep_Tech_Vol._19-(LWSIMPLYDT19)-WEB-2024-COS 366,65 MB COS 2024-04-02
 VA-Settled_Sounds_032-(HOTQSTSND032)-WEB-2024-COS 287,33 MB COS 2024-04-02
 VA-Power_Pump_007-(HOTQPP007)-WEB-2024-COS 295,52 MB COS 2024-04-02
 VA-Keep_It_Soulful_Vol._19-(LWKISOUL19)-WEB-2024-COS 332,35 MB COS 2024-04-02
 VA-Keep_It_Disco_Vol._19-(LWKID19)-WEB-2024-COS 306,14 MB COS 2024-04-02
 VA-Indie_Dance_Grooves_Vol._19-(LWIDG19)-WEB-2024-COS 192,37 MB COS 2024-04-02
 Jay_Ciru_Official_-_Quiero_Volar_(Tony_Costa_Remix)-(GM2426)-SINGLE-WEB-SP-2024-ZzZz 9,18 MB ZzZz 2024-04-02
 Ruth_Ware-Zero_Days-MP3CD-DE-2024-FKKAuDiOBooK 631,10 MB FKKAuDiO... 2024-04-02
 Parcker_Montivero_-_Fly_Until_I_Reach_You_(Hiddeminside_Remix)-(HER148)-WEB-2024-ZzZz 39,48 MB ZzZz 2024-04-02
 Lucy_Clarke-The_Castaways_(Die_Verschollenen)-2MP3CD-DE-2022-FKKAuDiOBooK 811,40 MB FKKAuDiO... 2024-04-02
 Gisa_Pauly-Stille_Wasser_sind_fies-2MP3CD-DE-2023-FKKAuDiOBooK 698,80 MB FKKAuDiO... 2024-04-02
 Raul_Lokura_and_Puddle_EcoSystem_-_Break_The_Present-(73M449)-SINGLE-WEB-2024-ZzZz 14,50 MB ZzZz 2024-04-02
 DJ_Pulse_-_Addicted_To_You-(DNZF1636)-SINGLE-WEB-2024-ZzZz 12,18 MB ZzZz 2024-04-02
 Jacques_Brel-Jarrive-FR-REMASTERED-24BIT-96KHZ-WEB-FLAC-2013-OBZEN 957,49 MB OBZEN 2024-04-02
 Jacques_Brel-Jacques_Brel_67-FR-REMASTERED-24BIT-96KHZ-WEB-FLAC-2013-OBZEN 886,17 MB OBZEN 2024-04-02
 Jacques_Brel-Et_Ses_Chansons-FR-REMASTERED-24BIT-96KHZ-WEB-FLAC-2013-OBZEN 845,57 MB OBZEN 2024-04-02
 Jacques_Brel-Ces_Gens-La-FR-REMASTERED-24BIT-96KHZ-WEB-FLAC-2013-OBZEN 1,08 GB OBZEN 2024-04-02
 Jacques_Brel-Au_Printemps-FR-REMASTERED-24BIT-96KHZ-WEB-FLAC-2013-OBZEN 709,28 MB OBZEN 2024-04-02
 Ison_Och_Fille-Vad_E_Det_For_Mode-SE-EP-16BIT-WEB-FLAC-2007-OBZEN 180,12 MB OBZEN 2024-04-02
 Ison_Och_Fille-Vackra_Liv-SE-16BIT-WEB-FLAC-2019-OBZEN 206,34 MB OBZEN 2024-04-02
 Ison_Och_Fille-Resume-SE-16BIT-WEB-FLAC-2015-OBZEN 648,83 MB OBZEN 2024-04-02
 Infected_Mushroom-REBORN-16BIT-WEB-FLAC-2024-OBZEN 465,94 MB OBZEN 2024-04-02
 Infected_Mushroom-More_Than_Just_A_Name-16BIT-WEB-FLAC-2020-OBZEN 369,75 MB OBZEN 2024-04-02
 Infected_Mushroom-IM25-24BIT-44KHZ-WEB-FLAC-2022-OBZEN 625,23 MB OBZEN 2024-04-02
 Infected_Mushroom-Head_Of_NASA_And_The_2_Amish_Boys-16BIT-WEB-FLAC-2018-OBZEN 296,80 MB OBZEN 2024-04-02
 Indian-The_Unquiet_Sky-16BIT-WEB-FLAC-2005-OBZEN 372,96 MB OBZEN 2024-04-02
 Indian-Indian_Guiltless-DELUXE_EDITION-16BIT-WEB-FLAC-2011-OBZEN 357,13 MB OBZEN 2024-04-02
 Imogen_Heap-Speak_For_Yourself-DELUXE_EDITION-24BIT-44KHZ-WEB-FLAC-2005-OBZEN 1,06 GB OBZEN 2024-04-02
 Imogen_Heap-I_Megaphone-16BIT-WEB-FLAC-1998-OBZEN 316,55 MB OBZEN 2024-04-02
 Maynard_James_Keenan-Sessanta_E.P.P.P.-Web-2024-FKK_INT 29,59 MB FKK_INT 2024-04-02
 Ian_Brown-Ripples-24BIT-48KHZ-WEB-FLAC-2019-OBZEN 533,94 MB OBZEN 2024-04-02
 Ian_Brown-Golden_Greats-16BIT-WEB-FLAC-1999-OBZEN 383,75 MB OBZEN 2024-04-02
 Hope_Sandoval_and_The_Warm_Inventions-Until_The_Hunter-24BIT-96KHZ-WEB-FLAC-2016-OBZEN 1,16 GB OBZEN 2024-04-02
 Hope_Sandoval_and_The_Warm_Inventions-Through_The_Devil_Softly-16BIT-WEB-FLAC-2009-OBZEN 272,78 MB OBZEN 2024-04-02
 Hop_Along-Painted_Shut-24BIT-96KHZ-WEB-FLAC-2015-OBZEN 843,10 MB OBZEN 2024-04-02
 Hop_Along-Get_Disowned-16BIT-WEB-FLAC-2012-OBZEN 231,68 MB OBZEN 2024-04-02
 Hop_Along-Bark_Your_Head_Off_Dog-24BIT-44KHZ-WEB-FLAC-2018-OBZEN 443,77 MB OBZEN 2024-04-02
 Hansson_and_Karlsson-Rex-16BIT-WEB-FLAC-1968-OBZEN 254,24 MB OBZEN 2024-04-02
 Hansson_and_Karlsson-Monument-16BIT-WEB-FLAC-1967-OBZEN 216,11 MB OBZEN 2024-04-02
 Hansson_and_Karlsson-Man_At_The_Moon-16BIT-WEB-FLAC-1968-OBZEN 184,09 MB OBZEN 2024-04-02
 Hansson_and_Karlsson-Hansson_and_Karlsson-16BIT-WEB-FLAC-1998-OBZEN 426,38 MB OBZEN 2024-04-02
 Hansson_and_Karlsson-For_People_In_Love-16BIT-WEB-FLAC-2010-OBZEN 601,67 MB OBZEN 2024-04-02
 James-The_Night_Before-16BIT-WEB-FLAC-2010-OBZEN 227,19 MB OBZEN 2024-04-02
 James-The_Collection-16BIT-WEB-FLAC-2004-OBZEN 514,55 MB OBZEN 2024-04-02
 James-The_Campfire_EP-EP-24BIT-44KHZ-WEB-FLAC-2021-OBZEN 159,24 MB OBZEN 2024-04-02
 Ralf_Gum_feat_Monica_Blaire--AWA-(FN093)-WEB-2024-dh 49,63 MB dh 2024-04-02
 James-Stutter-16BIT-WEB-FLAC-1986-OBZEN 232,74 MB OBZEN 2024-04-02
 James-Millionaires-16BIT-WEB-FLAC-1999-OBZEN 351,82 MB OBZEN 2024-04-02
 James-Living_In_Extraordinary_Times-16BIT-WEB-FLAC-2018-OBZEN 488,38 MB OBZEN 2024-04-02
 Andrea_Pace_-_Tra_Cariddi_E_Scilla-SINGLE-WEB-IT-2024-UOVA 7,24 MB UOVA 2024-04-02
 James-Live_In_Extraordinary_Times-DELUXE_EDITION-24BIT-44KHZ-WEB-FLAC-2020-OBZEN 1,30 GB OBZEN 2024-04-02
 James-Laid-DELUXE_EDITION-16BIT-WEB-FLAC-1993-OBZEN 819,56 MB OBZEN 2024-04-02
 James-La_Petite_Mort-16BIT-WEB-FLAC-2014-OBZEN 297,48 MB OBZEN 2024-04-02
 James-Justhipper_The_Complete_Sire_and_Blanco_Y_Negro_Recordings_1986-1988-16BIT-WEB-FLAC-2020-OBZEN 700,44 MB OBZEN 2024-04-02
 Unholy_Force__Purgatory-The_Unholy_Forces_of_Purgatory-(DA13-090)-SPLIT-CD-FLAC-2023-MOONBLOOD 267,68 MB MOONBLOOD 2024-04-02
 James-Hey_Ma-16BIT-WEB-FLAC-2008-OBZEN 299,90 MB OBZEN 2024-04-02
 Lesny_Deep--Hear_The_Sound-(DELVE258)-WEB-2024-dh 30,50 MB dh 2024-04-02
 James-Girl_At_The_End_Of_The_World-24BIT-44KHZ-WEB-FLAC-2016-OBZEN 525,01 MB OBZEN 2024-04-02
 James-Be_Opened_By_The_Wonderful-24BIT-48KHZ-WEB-FLAC-2023-OBZEN 1,02 GB OBZEN 2024-04-02
 James-Fresh_As_A_Daisy_The_Singles-16BIT-WEB-FLAC-2007-OBZEN 891,13 MB OBZEN 2024-04-02
 Unholy_Force-Purgatory--The_Unholy_Forces_of_Purgatory-Split-2023-BERC 71,57 MB BERC 2024-04-02
 James-B-Sides_Ultra-16BIT-WEB-FLAC-2001-OBZEN 417,47 MB OBZEN 2024-04-02
 James-All_The_Colours_Of_You-24BIT-48KHZ-WEB-FLAC-2021-OBZEN 594,04 MB OBZEN 2024-04-02
 Jacques_Brel-Quand_On_Na_Que_LAmour-FR-REMASTERED-24BIT-96KHZ-WEB-FLAC-2013-OBZEN 652,21 MB OBZEN 2024-04-02
 Jacques_Brel-Olympia_1964-FR-REMASTERED-24BIT-96KHZ-WEB-FLAC-2013-OBZEN 1.005,96 MB OBZEN 2024-04-02
 Angara_and_Bound_to_Divide-Odyssey-(742779551641)-24BIT-WEB-FLAC-2024-AFO 115,60 MB AFO 2024-04-02
 Angara_and_Bound_to_Divide-Odyssey-(742779551641)-WEB-2024-AFO 22,51 MB AFO 2024-04-02
 Zadnej_Stres-Cesta-CZ-WEB-2023-k4 76,43 MB k4 2024-04-02
 Jacques_Brel-Olympia_1961-FR-REMASTERED-24BIT-44KHZ-WEB-FLAC-2013-OBZEN 544,14 MB OBZEN 2024-04-02
 CEVs--Materia_Prima_(Sublimation)-(OHM137)-WEB-2024-dh 43,30 MB dh 2024-04-02
 Jacques_Brel-Ne_Me_Quittes_Pas_Nouveaux_Enregistrements_1972-FR-REMASTERED-24BIT-96KHZ-WEB-FLAC-2013... 869,04 MB OBZEN 2024-04-02
 Jacques_Brel-Marieke-FR-REMASTERED-24BIT-96KHZ-WEB-FLAC-2013-OBZEN 906,47 MB OBZEN 2024-04-02
 Jacques_Brel-Les_Marquises-FR-REMASTERED-24BIT-96KHZ-WEB-FLAC-2013-OBZEN 1,54 GB OBZEN 2024-04-02
 Jacques_Brel-Les_Bourgeois-FR-REMASTERED-24BIT-96KHZ-WEB-FLAC-2013-OBZEN 971,27 MB OBZEN 2024-04-02
 Jacques_Brel-Les_Bonbons-FR-REMASTERED-24BIT-96KHZ-WEB-FLAC-2013-OBZEN 1,14 GB OBZEN 2024-04-02
 Jacques_Brel-La_Valse_A_Mille_Temps-FR-REMASTERED-24BIT-96KHZ-WEB-FLAC-2013-OBZEN 707,38 MB OBZEN 2024-04-02
 Jacques_Brel-LHomme_De_La_Mancha-FR-REMASTERED-24BIT-96KHZ-WEB-FLAC-2003-OBZEN 981,93 MB OBZEN 2024-04-02
 VA-Music_For_Peace-ART21DRC004-WEB-2024-WAV 127,92 MB WAV 2024-04-02
 VA-Radiance_005-RAD005-WEB-2024-WAV 217,99 MB WAV 2024-04-02
 VA-Here_And_Now-GGNDGTL004-WEB-2024-WAV 160,47 MB WAV 2024-04-02
 Deep_Essentials--Precious_Love-(GOR052)-WEB-2024-dh 241,97 MB dh 2024-04-02
 Deep_Essentials--Koketso_Ep-(GOR031)-WEB-2023-dh 110,23 MB dh 2024-04-02
 Oryzon-SOUS_LA_PLUIE-SINGLE-WEB-FR-2024-OND 8,64 MB OND 2024-04-02
[1].2.
Work time: 0.0115 seconds

Contact: 0day@bk.ru

Рейтинг@Mail.ru